Regional Weather Roundup
Issued by NWS Albany, NY

Home | Current Version | Previous Version | Graphics & Text | Print | Product List | Glossary Off
Versions: 1 2 3 4 5 6 7 8 9 10 11 12 13 14 15 16 17 18 19 20 21 22 23 24 25 26 27 28 29 30 31 32 33 34 35 36 37 38 39 40 41 42 43 44 45 46 47 48 49 50

585
ASUS41 KALY 052210
RWRALY

NEW YORK STATE HOURLY WEATHER ROUNDUP
NATIONAL WEATHER SERVICE ALBANY NY
600 PM EDT THU MAY 05 2016

NOTE: "FAIR" INDICATES FEW OR NO CLOUDS BELOW 12,000 FEET WITH NO
SIGNIFICANT WEATHER AND/OR NO OBSTRUCTIONS TO VISIBILITY.

NYZ032-033-038>043-046>054-057>066-NYZ062>081-082-084-052300-
EAST


CITY           SKY/WX    TMP DP  RH WIND       PRES   REMARKS
ALBANY         CLOUDY    57  44  62 NE13      29.72R
GLENS FALLS    CLOUDY    58  43  57 N12       29.73S
POUGHKEEPSIE   CLOUDY    59  44  57 NE13      29.65F
NEWBURGH       CLOUDY    57  46  67 NE12G21   29.66S
MONTGOMERY     CLOUDY    57  45  64 NE13      29.65S
WHITE PLAINS   PTSUNNY   54  43  66 N8        29.63F
ISLIP          CLOUDY    52  44  74 NE16      29.62F
NEW YORK CITY  CLOUDY    56  46  69 NE14      29.63F
CENTRAL PARK   CLOUDY    56  42  59 NE8       29.66S
$$

NYZ005>009-017-018-044>046-055-056-052300-
CENTRAL


CITY           SKY/WX    TMP DP  RH WIND       PRES   REMARKS
FULTON         CLOUDY    63  44  50 N15G23    29.73S
SYRACUSE       CLOUDY    59  46  62 NW9       29.71S
ROME           CLOUDY    59  45  59 CALM      29.73R
ELMIRA         CLOUDY    56  44  64 NE12      29.71S
BINGHAMTON     CLOUDY    53  42  66 NE9       29.70S
MONTICELLO     CLOUDY    55  43  62 NE9       29.68R
$$

NYZ026>034-041>043-087-052300-
NORTH


CITY           SKY/WX    TMP DP  RH WIND       PRES   REMARKS
WATERTOWN      PTSUNNY   62  41  46 NE14G22   29.75F
FORT DRUM      NOT AVBL
MASSENA        MOSUNNY   62  40  44 NE15      29.81S
SARANAC LAKE   CLOUDY    53  40  61 NE13      29.76S
PLATTSBURGH    CLOUDY    59  42  53 N12       29.78S
$$

NYZ001>004-010>016-019>021-085-052300-
WEST


CITY           SKY/WX    TMP DP  RH WIND       PRES   REMARKS
NIAGARA FALLS  PTSUNNY   63  45  51 N12       29.78S
BUFFALO        PTSUNNY   60  42  51 NE15      29.77S
DUNKIRK        MOSUNNY   59  44  57 N13       29.78S
JAMESTOWN      PTSUNNY   57  39  51 N12       29.75S
WELLSVILLE     CLOUDY    53  42  66 N8G16     29.75R
ROCHESTER      PTSUNNY   59  43  55 E13       29.78S
PENN YAN       CLOUDY    57  43  59 N10       29.75S
$$

             KEY
       WCI = WIND CHILL INDEX
       VSB = VISIBILITY
       HX  = HEAT INDEX
$$




USA.gov is the U.S. government's official web portal to all federal, state and local government web resources and services.